| time (UTC) | temp F | wind direction | speed MPH | gust MPH | rain 1hr in | rain 24hr in | rain mn in | humidity % | barometer mb |
| 20260509111303 | 58 | 171 | 4.0 | 9.0 | 0.00 | 0.00 | 0.00 | 63 | 1009.4 |
| 20260509110803 | 58 | 171 | 3.0 | 5.0 | 0.00 | 0.00 | 0.00 | 63 | 1009.5 |
| 20260509110303 | 58 | 171 | 2.0 | 7.0 | 0.00 | 0.00 | 0.00 | 63 | 1009.4 |
| 20260509105306 | 58 | 178 | 3.0 | 8.0 | 0.00 | 0.00 | 0.00 | 62 | 1009.2 |
| 20260509104803 | 58 | 185 | 3.0 | 3.0 | 0.00 | 0.00 | 0.00 | 62 | 1009.2 |
| 20260509104303 | 58 | 188 | 2.0 | 3.0 | 0.00 | 0.00 | 0.00 | 62 | 1009.2 |
| 20260509103803 | 58 | 169 | 3.0 | 5.0 | 0.00 | 0.00 | 0.00 | 62 | 1009.0 |
| 20260509103303 | 58 | 184 | 2.0 | 3.0 | 0.00 | 0.00 | 0.00 | 61 | 1009.1 |
| 20260509102803 | 59 | 191 | 2.0 | 3.0 | 0.00 | 0.00 | 0.00 | 61 | 1009.1 |
| 20260509102305 | 59 | 186 | 2.0 | 3.0 | 0.00 | 0.00 | 0.00 | 61 | 1009.1 |
| 20260509101304 | 59 | 181 | 2.0 | 3.0 | 0.00 | 0.00 | 0.00 | 61 | 1009.0 |
| 20260509100803 | 59 | 184 | 4.0 | 8.0 | 0.00 | 0.00 | 0.00 | 60 | 1008.9 |
| 20260509095803 | 59 | 179 | 3.0 | 3.0 | 0.00 | 0.00 | 0.00 | 60 | 1008.8 |
| 20260509094803 | 59 | 197 | 2.0 | 3.0 | 0.00 | 0.00 | 0.00 | 59 | 1008.9 |
| 20260509094303 | 59 | 194 | 2.0 | 5.0 | 0.00 | 0.00 | 0.00 | 59 | 1009.0 |
| 20260509093804 | 59 | 203 | 3.0 | 7.0 | 0.00 | 0.00 | 0.00 | 59 | 1008.9 |
| 20260509093303 | 59 | 191 | 3.0 | 8.0 | 0.00 | 0.00 | 0.00 | 59 | 1008.9 |
| 20260509092803 | 59 | 222 | 2.0 | 8.0 | 0.00 | 0.00 | 0.00 | 59 | 1008.8 |
| 20260509092306 | 59 | 212 | 4.0 | 9.0 | 0.00 | 0.00 | 0.00 | 59 | 1008.8 |
| 20260509091803 | 59 | 213 | 3.0 | 7.0 | 0.00 | 0.00 | 0.00 | 59 | 1008.9 |
| 20260509090303 | 59 | 209 | 4.0 | 12.0 | 0.00 | 0.00 | 0.00 | 59 | 1009.1 |
| 20260509085803 | 59 | 196 | 3.0 | 9.0 | 0.00 | 0.00 | 0.00 | 59 | 1009.1 |
| 20260509085306 | 59 | 214 | 4.0 | 9.0 | 0.00 | 0.00 | 0.00 | 59 | 1009.2 |
| 20260509084803 | 59 | 221 | 5.0 | 10.0 | 0.00 | 0.00 | 0.00 | 60 | 1009.2 |
| 20260509084303 | 59 | 217 | 6.0 | 10.0 | 0.00 | 0.00 | 0.00 | 60 | 1009.2 |
| 20260509083803 | 58 | 246 | 4.0 | 9.0 | 0.00 | 0.00 | 0.00 | 60 | 1009.2 |
| 20260509083303 | 58 | 221 | 5.0 | 12.0 | 0.00 | 0.00 | 0.00 | 61 | 1009.3 |
| 20260509082804 | 58 | 198 | 2.0 | 10.0 | 0.00 | 0.00 | 0.00 | 61 | 1009.3 |
| 20260509082306 | 58 | 204 | 5.0 | 12.0 | 0.00 | 0.00 | 0.00 | 62 | 1009.4 |
| 20260509081804 | 57 | 197 | 5.0 | 12.0 | 0.00 | 0.00 | 0.00 | 63 | 1009.6 |
| 20260509080803 | 57 | 203 | 6.0 | 12.0 | 0.00 | 0.00 | 0.00 | 64 | 1009.7 |
| 20260509080303 | 57 | 222 | 5.0 | 9.0 | 0.00 | 0.00 | 0.00 | 64 | 1009.7 |
| 20260509075803 | 56 | 207 | 4.0 | 8.0 | 0.00 | 0.00 | 0.00 | 64 | 1009.7 |
| 20260509075306 | 56 | 196 | 4.0 | 9.0 | 0.00 | 0.00 | 0.00 | 65 | 1009.7 |
| 20260509074804 | 56 | 217 | 3.0 | 7.0 | 0.00 | 0.00 | 0.00 | 66 | 1009.7 |
| 20260509074303 | 56 | 209 | 2.0 | 3.0 | 0.00 | 0.00 | 0.00 | 66 | 1009.7 |
| 20260509073803 | 56 | 202 | 3.0 | 6.0 | 0.00 | 0.00 | 0.00 | 66 | 1009.7 |
| 20260509072804 | 55 | 205 | 3.0 | 8.0 | 0.00 | 0.00 | 0.00 | 67 | 1009.8 |
| 20260509072306 | 55 | 204 | 4.0 | 8.0 | 0.00 | 0.00 | 0.00 | 68 | 1009.7 |
| 20260509071803 | 55 | 197 | 3.0 | 7.0 | 0.00 | 0.00 | 0.00 | 68 | 1009.7 |
| 20260509071304 | 55 | 209 | 2.0 | 3.0 | 0.00 | 0.00 | 0.00 | 68 | 1009.7 |
| 20260509070803 | 55 | 198 | 2.0 | 5.0 | 0.00 | 0.00 | 0.00 | 68 | 1009.8 |
| 20260509070303 | 55 | 180 | 2.0 | 3.0 | 0.00 | 0.00 | 0.00 | 68 | 1009.8 |
| 20260509065803 | 55 | 180 | 2.0 | 3.0 | 0.00 | 0.00 | 0.00 | 69 | 1009.9 |
| 20260509065306 | 55 | 180 | 2.0 | 3.0 | 0.00 | 0.00 | 0.00 | 68 | 1009.8 |
| 20260509064803 | 55 | 180 | 2.0 | 3.0 | 0.00 | 0.00 | 0.00 | 68 | 1009.9 |
| 20260509064303 | 55 | 180 | 1.0 | 3.0 | 0.00 | 0.00 | 0.00 | 68 | 1009.9 |
| 20260509062804 | 54 | 180 | 2.0 | 3.0 | 0.00 | 0.00 | 0.00 | 68 | 1010.1 |
| 20260509062306 | 54 | 180 | 2.0 | 3.0 | 0.00 | 0.00 | 0.00 | 68 | 1010.1 |
| 20260509061803 | 54 | 221 | 2.0 | 3.0 | 0.00 | 0.00 | 0.00 | 68 | 1010.2 |
| 20260509060803 | 54 | 221 | 1.0 | 3.0 | 0.00 | 0.00 | 0.00 | 68 | 1010.3 |
| 20260509060303 | 54 | 221 | 1.0 | 3.0 | 0.00 | 0.00 | 0.00 | 68 | 1010.3 |
| 20260509055803 | 54 | 221 | 1.0 | 3.0 | 0.00 | 0.00 | 0.00 | 67 | 1010.3 |
| 20260509055306 | 54 | 221 | 1.0 | 3.0 | 0.00 | 0.00 | 0.00 | 67 | 1010.3 |
| 20260509054803 | 55 | 221 | 1.0 | 2.0 | 0.00 | 0.00 | 0.00 | 67 | 1010.5 |
| 20260509053803 | 55 | 221 | 1.0 | 2.0 | 0.00 | 0.00 | 0.00 | 66 | 1010.4 |
| 20260509053303 | 55 | 221 | 1.0 | 2.0 | 0.00 | 0.00 | 0.00 | 66 | 1010.4 |
| 20260509052803 | 55 | 221 | 1.0 | 3.0 | 0.00 | 0.00 | 0.00 | 65 | 1010.4 |
| 20260509052306 | 55 | 221 | 0.0 | 2.0 | 0.00 | 0.00 | 0.00 | 65 | 1010.4 |
| 20260509051803 | 56 | 221 | 0.0 | 2.0 | 0.00 | 0.00 | 0.00 | 65 | 1010.4 |
| 20260509051303 | 56 | 221 | 0.0 | 1.0 | 0.00 | 0.00 | 0.00 | 64 | 1010.5 |
| 20260509050804 | 56 | 221 | 1.0 | 3.0 | 0.00 | 0.00 | 0.00 | 64 | 1010.5 |
| 20260509050303 | 56 | 189 | 2.0 | 3.0 | 0.00 | 0.00 | 0.00 | 64 | 1010.4 |
| 20260509045804 | 56 | 160 | 2.0 | 3.0 | 0.00 | 0.00 | 0.00 | 64 | 1010.4 |
| 20260509045306 | 56 | 196 | 2.0 | 3.0 | 0.00 | 0.00 | 0.00 | 64 | 1010.4 |
| 20260509044803 | 56 | 200 | 2.0 | 5.0 | 0.00 | 0.00 | 0.00 | 63 | 1010.5 |
| 20260509043803 | 57 | 177 | 2.0 | 3.0 | 0.00 | 0.00 | 0.00 | 63 | 1010.4 |
| 20260509042803 | 57 | 190 | 2.0 | 3.0 | 0.00 | 0.00 | 0.00 | 63 | 1010.5 |
| 20260509041303 | 57 | 210 | 3.0 | 7.0 | 0.00 | 0.00 | 0.00 | 65 | 1010.5 |
| 20260509040803 | 57 | 212 | 3.0 | 5.0 | 0.00 | 0.00 | 0.00 | 65 | 1010.6 |
| 20260509040304 | 57 | 187 | 3.0 | 10.0 | 0.00 | 0.00 | 0.00 | 65 | 1010.6 |
| 20260509035803 | 57 | 186 | 3.0 | 8.0 | 0.00 | 0.00 | 0.00 | 65 | 1010.6 |
| 20260509034303 | 58 | 178 | 2.0 | 5.0 | 0.00 | 0.00 | 0.00 | 64 | 1010.7 |
| 20260509033803 | 58 | 179 | 2.0 | 5.0 | 0.00 | 0.00 | 0.00 | 64 | 1010.6 |
| 20260509033304 | 58 | 174 | 3.0 | 6.0 | 0.00 | 0.00 | 0.00 | 63 | 1010.7 |
| 20260509032803 | 59 | 178 | 3.0 | 5.0 | 0.00 | 0.00 | 0.00 | 63 | 1010.7 |
| 20260509032306 | 59 | 167 | 3.0 | 5.0 | 0.00 | 0.00 | 0.00 | 62 | 1010.7 |
| 20260509030803 | 60 | 185 | 2.0 | 3.0 | 0.00 | 0.00 | 0.00 | 60 | 1010.8 |
| 20260509030303 | 60 | 185 | 2.0 | 3.0 | 0.00 | 0.00 | 0.00 | 59 | 1010.8 |
| 20260509025803 | 60 | 185 | 2.0 | 3.0 | 0.00 | 0.00 | 0.00 | 59 | 1010.8 |
| 20260509025306 | 61 | 189 | 1.0 | 3.0 | 0.00 | 0.00 | 0.00 | 58 | 1010.8 |
| 20260509024303 | 61 | 189 | 2.0 | 3.0 | 0.00 | 0.00 | 0.00 | 56 | 1010.7 |
| 20260509023803 | 62 | 188 | 3.0 | 3.0 | 0.00 | 0.00 | 0.00 | 56 | 1010.7 |
| 20260509023303 | 62 | 189 | 2.0 | 3.0 | 0.00 | 0.00 | 0.00 | 55 | 1010.7 |
| 20260509022803 | 62 | 189 | 1.0 | 3.0 | 0.00 | 0.00 | 0.00 | 54 | 1010.8 |
| 20260509022306 | 63 | 189 | 2.0 | 3.0 | 0.00 | 0.00 | 0.00 | 54 | 1010.9 |
| 20260509021803 | 63 | 189 | 2.0 | 3.0 | 0.00 | 0.00 | 0.00 | 53 | 1010.8 |
| 20260509020803 | 63 | 174 | 3.0 | 3.0 | 0.00 | 0.00 | 0.00 | 52 | 1010.8 |
| 20260509020303 | 64 | 178 | 3.0 | 5.0 | 0.00 | 0.00 | 0.00 | 51 | 1010.6 |
| 20260509015803 | 64 | 156 | 3.0 | 5.0 | 0.00 | 0.00 | 0.00 | 50 | 1010.7 |
| 20260509015306 | 64 | 174 | 2.0 | 5.0 | 0.00 | 0.00 | 0.00 | 50 | 1010.7 |
| 20260509014803 | 64 | 191 | 2.0 | 3.0 | 0.00 | 0.00 | 0.00 | 50 | 1010.7 |
| 20260509014303 | 65 | 192 | 3.0 | 5.0 | 0.00 | 0.00 | 0.00 | 49 | 1010.7 |
| 20260509013804 | 65 | 185 | 2.0 | 3.0 | 0.00 | 0.00 | 0.00 | 49 | 1010.7 |
| 20260509013303 | 65 | 180 | 2.0 | 3.0 | 0.00 | 0.00 | 0.00 | 48 | 1010.6 |
| 20260509012803 | 65 | 181 | 2.0 | 3.0 | 0.00 | 0.00 | 0.00 | 46 | 1010.6 |
| 20260509012306 | 65 | 142 | 2.0 | 3.0 | 0.00 | 0.00 | 0.00 | 45 | 1010.6 |
| 20260509011804 | 65 | 146 | 3.0 | 3.0 | 0.00 | 0.00 | 0.00 | 44 | 1010.7 |
| 20260509011303 | 65 | 187 | 2.0 | 3.0 | 0.00 | 0.00 | 0.00 | 43 | 1010.6 |
| 20260509010804 | 65 | 180 | 2.0 | 3.0 | 0.00 | 0.00 | 0.00 | 43 | 1010.5 |
| 20260509010304 | 66 | 187 | 2.0 | 5.0 | 0.00 | 0.00 | 0.00 | 42 | 1010.4 |
| 20260509005803 | 66 | 183 | 3.0 | 5.0 | 0.00 | 0.00 | 0.00 | 42 | 1010.3 |
| 20260509005306 | 66 | 185 | 1.0 | 3.0 | 0.00 | 0.00 | 0.00 | 41 | 1010.4 |
| 20260509004303 | 66 | 187 | 3.0 | 7.0 | 0.00 | 0.00 | 0.00 | 41 | 1010.3 |
| 20260509003303 | 66 | 212 | 2.0 | 3.0 | 0.00 | 0.00 | 0.00 | 41 | 1010.2 |
| 20260509002803 | 66 | 215 | 1.0 | 2.0 | 0.00 | 0.00 | 0.00 | 40 | 1010.2 |
| 20260509001803 | 67 | 203 | 2.0 | 5.0 | 0.00 | 0.00 | 0.00 | 39 | 1010.0 |
| 20260509001304 | 67 | 206 | 1.0 | 6.0 | 0.00 | 0.00 | 0.00 | 39 | 1010.0 |
| 20260509000304 | 67 | 226 | 1.0 | 3.0 | 0.00 | 0.00 | 0.00 | 38 | 1009.9 |
| 20260508235803 | 67 | 192 | 3.0 | 3.0 | 0.00 | 0.00 | 0.00 | 38 | 1009.8 |
| 20260508235306 | 67 | 227 | 2.0 | 3.0 | 0.00 | 0.00 | 0.00 | 38 | 1009.8 |
| 20260508234804 | 67 | 206 | 3.0 | 7.0 | 0.00 | 0.00 | 0.00 | 37 | 1009.8 |
| 20260508234303 | 68 | 208 | 1.0 | 3.0 | 0.00 | 0.00 | 0.00 | 36 | 1009.7 |
| 20260508233803 | 68 | 212 | 2.0 | 3.0 | 0.00 | 0.00 | 0.00 | 36 | 1009.6 |
| 20260508233303 | 68 | 259 | 0.0 | 3.0 | 0.00 | 0.00 | 0.00 | 35 | 1009.6 |
| 20260508232804 | 68 | 259 | 0.0 | 0.0 | 0.00 | 0.00 | 0.00 | 34 | 1009.5 |
| 20260508232306 | 68 | 259 | 1.0 | 3.0 | 0.00 | 0.00 | 0.00 | 34 | 1009.6 |
| 20260508231803 | 68 | 259 | 0.0 | 0.0 | 0.00 | 0.00 | 0.00 | 34 | 1009.5 |
| 20260508231303 | 68 | 259 | 0.0 | 1.0 | 0.00 | 0.00 | 0.00 | 34 | 1009.5 |
| 20260508225804 | 68 | 249 | 1.0 | 3.0 | 0.00 | 0.00 | 0.00 | 33 | 1009.5 |
| 20260508225306 | 68 | 239 | 1.0 | 5.0 | 0.00 | 0.00 | 0.00 | 33 | 1009.4 |
| 20260508224804 | 69 | 253 | 2.0 | 7.0 | 0.00 | 0.00 | 0.00 | 33 | 1009.4 |
| 20260508224303 | 69 | 231 | 3.0 | 7.0 | 0.00 | 0.00 | 0.00 | 33 | 1009.4 |
| 20260508223803 | 69 | 231 | 2.0 | 6.0 | 0.00 | 0.00 | 0.00 | 33 | 1009.3 |
| 20260508223304 | 69 | 252 | 1.0 | 6.0 | 0.00 | 0.00 | 0.00 | 33 | 1009.3 |
| 20260508222803 | 69 | 223 | 3.0 | 7.0 | 0.00 | 0.00 | 0.00 | 33 | 1009.3 |
| 20260508222306 | 69 | 235 | 3.0 | 8.0 | 0.00 | 0.00 | 0.00 | 33 | 1009.4 |
| 20260508221804 | 69 | 254 | 3.0 | 12.0 | 0.00 | 0.00 | 0.00 | 32 | 1009.4 |
| 20260508221304 | 69 | 272 | 3.0 | 8.0 | 0.00 | 0.00 | 0.00 | 33 | 1009.4 |
| 20260508215803 | 70 | 253 | 4.0 | 10.0 | 0.00 | 0.00 | 0.00 | 32 | 1009.5 |
| 20260508215306 | 70 | 274 | 5.0 | 14.0 | 0.00 | 0.00 | 0.00 | 32 | 1009.4 |
| 20260508214804 | 70 | 252 | 6.0 | 13.0 | 0.00 | 0.00 | 0.00 | 32 | 1009.5 |
| 20260508214303 | 70 | 233 | 2.0 | 3.0 | 0.00 | 0.00 | 0.00 | 33 | 1009.4 |
| 20260508212306 | 72 | 270 | 3.0 | 12.0 | 0.00 | 0.00 | 0.00 | 31 | 1009.4 |
| 20260508211803 | 72 | 292 | 3.0 | 13.0 | 0.00 | 0.00 | 0.00 | 30 | 1009.4 |
| 20260508211303 | 72 | 272 | 6.0 | 16.0 | 0.00 | 0.00 | 0.00 | 30 | 1009.4 |
| 20260508210803 | 72 | 308 | 7.0 | 10.0 | 0.00 | 0.00 | 0.00 | 30 | 1009.4 |
| 20260508210303 | 72 | 256 | 6.0 | 13.0 | 0.00 | 0.00 | 0.00 | 30 | 1009.3 |
| 20260508205803 | 73 | 238 | 7.0 | 15.0 | 0.00 | 0.00 | 0.00 | 29 | 1009.4 |
| 20260508204803 | 73 | 20 | 5.0 | 12.0 | 0.00 | 0.00 | 0.00 | 29 | 1009.5 |
| 20260508204303 | 73 | 202 | 3.0 | 13.0 | 0.00 | 0.00 | 0.00 | 29 | 1009.4 |
| 20260508203803 | 73 | 283 | 5.0 | 12.0 | 0.00 | 0.00 | 0.00 | 29 | 1009.6 |
| 20260508203303 | 74 | 222 | 6.0 | 14.0 | 0.00 | 0.00 | 0.00 | 30 | 1009.5 |
| 20260508202804 | 74 | 257 | 7.0 | 16.0 | 0.00 | 0.00 | 0.00 | 29 | 1009.6 |
| 20260508202306 | 74 | 251 | 5.0 | 13.0 | 0.00 | 0.00 | 0.00 | 29 | 1009.6 |
| 20260508201303 | 73 | 298 | 6.0 | 15.0 | 0.00 | 0.00 | 0.00 | 29 | 1009.7 |
| 20260508200804 | 74 | 264 | 9.0 | 14.0 | 0.00 | 0.00 | 0.00 | 28 | 1009.9 |
| 20260508195803 | 73 | 323 | 6.0 | 13.0 | 0.00 | 0.00 | 0.00 | 31 | 1009.8 |
| 20260508195306 | 73 | 285 | 3.0 | 15.0 | 0.00 | 0.00 | 0.00 | 31 | 1009.9 |
| 20260508194803 | 73 | 297 | 3.0 | 13.0 | 0.00 | 0.00 | 0.00 | 31 | 1010.0 |
| 20260508193803 | 71 | 282 | 3.0 | 13.0 | 0.00 | 0.00 | 0.00 | 31 | 1010.1 |
| 20260508193303 | 71 | 291 | 6.0 | 13.0 | 0.00 | 0.00 | 0.00 | 33 | 1010.3 |
| 20260508192803 | 71 | 278 | 7.0 | 14.0 | 0.00 | 0.00 | 0.00 | 30 | 1010.3 |
| 20260508192306 | 71 | 279 | 5.0 | 12.0 | 0.00 | 0.00 | 0.00 | 30 | 1010.5 |
| 20260508191804 | 71 | 295 | 3.0 | 16.0 | 0.00 | 0.00 | 0.00 | 31 | 1010.6 |
| 20260508191303 | 71 | 250 | 9.0 | 20.0 | 0.00 | 0.00 | 0.00 | 32 | 1010.7 |
| 20260508190804 | 72 | 305 | 7.0 | 14.0 | 0.00 | 0.00 | 0.00 | 30 | 1010.7 |
| 20260508190304 | 72 | 280 | 8.0 | 13.0 | 0.00 | 0.00 | 0.00 | 30 | 1010.7 |
| 20260508185804 | 71 | 272 | 7.0 | 15.0 | 0.00 | 0.00 | 0.00 | 33 | 1010.7 |
| 20260508185306 | 71 | 254 | 6.0 | 15.0 | 0.00 | 0.00 | 0.00 | 31 | 1010.7 |
| 20260508184803 | 71 | 297 | 6.0 | 9.0 | 0.00 | 0.00 | 0.00 | 34 | 1010.8 |
| 20260508183803 | 70 | 232 | 3.0 | 9.0 | 0.00 | 0.00 | 0.00 | 33 | 1010.9 |
| 20260508183304 | 70 | 233 | 4.0 | 13.0 | 0.00 | 0.00 | 0.00 | 32 | 1011.0 |
| 20260508181803 | 71 | 239 | 7.0 | 17.0 | 0.00 | 0.00 | 0.00 | 31 | 1011.1 |
| 20260508181304 | 71 | 269 | 3.0 | 15.0 | 0.00 | 0.00 | 0.00 | 31 | 1011.0 |
| 20260508180804 | 72 | 256 | 6.0 | 14.0 | 0.00 | 0.00 | 0.00 | 31 | 1011.1 |
| 20260508180304 | 71 | 262 | 5.0 | 13.0 | 0.00 | 0.00 | 0.00 | 32 | 1011.1 |
| 20260508175803 | 71 | 299 | 10.0 | 21.0 | 0.00 | 0.00 | 0.00 | 33 | 1011.2 |
| 20260508175306 | 71 | 310 | 10.0 | 21.0 | 0.00 | 0.00 | 0.00 | 33 | 1011.2 |
| 20260508174803 | 71 | 289 | 6.0 | 14.0 | 0.00 | 0.00 | 0.00 | 34 | 1011.3 |
| 20260508174303 | 71 | 271 | 8.0 | 20.0 | 0.00 | 0.00 | 0.00 | 32 | 1011.5 |
| 20260508173803 | 71 | 270 | 6.0 | 15.0 | 0.00 | 0.00 | 0.00 | 34 | 1011.6 |
| 20260508173303 | 71 | 266 | 6.0 | 18.0 | 0.00 | 0.00 | 0.00 | 34 | 1011.6 |
| 20260508172803 | 71 | 300 | 9.0 | 20.0 | 0.00 | 0.00 | 0.00 | 35 | 1011.7 |
| 20260508171804 | 70 | 304 | 10.0 | 18.0 | 0.00 | 0.00 | 0.00 | 33 | 1011.7 |
| 20260508170803 | 70 | 267 | 10.0 | 16.0 | 0.00 | 0.00 | 0.00 | 34 | 1011.9 |
| 20260508170303 | 70 | 282 | 6.0 | 13.0 | 0.00 | 0.00 | 0.00 | 36 | 1011.8 |
| 20260508165803 | 70 | 261 | 4.0 | 16.0 | 0.00 | 0.00 | 0.00 | 35 | 1011.8 |
| 20260508165306 | 69 | 240 | 6.0 | 14.0 | 0.00 | 0.00 | 0.00 | 34 | 1012.0 |
| 20260508164803 | 69 | 282 | 5.0 | 16.0 | 0.00 | 0.00 | 0.00 | 34 | 1012.0 |
| 20260508163804 | 69 | 222 | 6.0 | 13.0 | 0.00 | 0.00 | 0.00 | 35 | 1011.9 |
| 20260508163303 | 68 | 284 | 5.0 | 13.0 | 0.00 | 0.00 | 0.00 | 36 | 1012.1 |
| 20260508162803 | 68 | 296 | 9.0 | 20.0 | 0.00 | 0.00 | 0.00 | 37 | 1012.1 |
| 20260508161803 | 68 | 224 | 6.0 | 12.0 | 0.00 | 0.00 | 0.00 | 36 | 1012.2 |
| 20260508160803 | 68 | 265 | 2.0 | 6.0 | 0.00 | 0.00 | 0.00 | 37 | 1012.4 |
| 20260508155803 | 68 | 282 | 7.0 | 14.0 | 0.00 | 0.00 | 0.00 | 39 | 1012.6 |
| 20260508155306 | 67 | 293 | 5.0 | 17.0 | 0.00 | 0.00 | 0.00 | 41 | 1012.6 |
| 20260508154804 | 67 | 284 | 6.0 | 13.0 | 0.00 | 0.00 | 0.00 | 40 | 1012.7 |
| 20260508153804 | 67 | 265 | 8.0 | 14.0 | 0.00 | 0.00 | 0.00 | 39 | 1013.0 |
| 20260508153304 | 66 | 288 | 11.0 | 17.0 | 0.00 | 0.00 | 0.00 | 40 | 1013.0 |
| 20260508152803 | 66 | 261 | 7.0 | 13.0 | 0.00 | 0.00 | 0.00 | 37 | 1013.0 |
| 20260508152306 | 66 | 287 | 5.0 | 15.0 | 0.00 | 0.00 | 0.00 | 39 | 1013.1 |
| 20260508151803 | 65 | 277 | 7.0 | 15.0 | 0.00 | 0.00 | 0.00 | 39 | 1013.2 |
| 20260508150803 | 65 | 223 | 6.0 | 17.0 | 0.00 | 0.00 | 0.00 | 37 | 1013.3 |
| 20260508150303 | 65 | 216 | 9.0 | 16.0 | 0.00 | 0.00 | 0.00 | 39 | 1013.3 |
| 20260508145804 | 65 | 338 | 7.0 | 15.0 | 0.00 | 0.00 | 0.00 | 39 | 1013.3 |
| 20260508144803 | 65 | 191 | 8.0 | 13.0 | 0.00 | 0.00 | 0.00 | 42 | 1013.3 |
| 20260508144303 | 64 | 277 | 5.0 | 12.0 | 0.00 | 0.00 | 0.00 | 38 | 1013.4 |
| 20260508143803 | 64 | 293 | 6.0 | 14.0 | 0.00 | 0.00 | 0.00 | 38 | 1013.4 |
| 20260508142803 | 64 | 241 | 3.0 | 9.0 | 0.00 | 0.00 | 0.00 | 41 | 1013.4 |
| 20260508142306 | 64 | 218 | 5.0 | 12.0 | 0.00 | 0.00 | 0.00 | 41 | 1013.4 |
| 20260508140804 | 63 | 245 | 4.0 | 12.0 | 0.00 | 0.00 | 0.00 | 40 | 1013.6 |
| 20260508140303 | 63 | 273 | 3.0 | 9.0 | 0.00 | 0.00 | 0.00 | 39 | 1013.6 |
| 20260508135306 | 62 | 258 | 4.0 | 12.0 | 0.00 | 0.00 | 0.00 | 38 | 1013.5 |
| 20260508134303 | 62 | 239 | 5.0 | 13.0 | 0.00 | 0.00 | 0.00 | 38 | 1013.6 |
| 20260508133804 | 62 | 269 | 3.0 | 13.0 | 0.00 | 0.00 | 0.00 | 39 | 1013.7 |
| 20260508133304 | 62 | 252 | 4.0 | 12.0 | 0.00 | 0.00 | 0.00 | 39 | 1013.8 |
| 20260508132803 | 61 | 256 | 6.0 | 10.0 | 0.00 | 0.00 | 0.00 | 39 | 1013.8 |
| 20260508132306 | 61 | 230 | 2.0 | 7.0 | 0.00 | 0.00 | 0.00 | 40 | 1013.9 |
| 20260508131803 | 61 | 220 | 2.0 | 7.0 | 0.00 | 0.00 | 0.00 | 39 | 1013.9 |
| 20260508131304 | 61 | 276 | 2.0 | 5.0 | 0.00 | 0.00 | 0.00 | 39 | 1013.9 |
| 20260508130303 | 61 | 194 | 3.0 | 3.0 | 0.00 | 0.00 | 0.00 | 41 | 1013.8 |
| 20260508125803 | 60 | 287 | 2.0 | 6.0 | 0.00 | 0.00 | 0.00 | 44 | 1013.9 |
| 20260508125306 | 60 | 214 | 2.0 | 3.0 | 0.00 | 0.00 | 0.00 | 46 | 1013.9 |
| 20260508124304 | 60 | 265 | 3.0 | 8.0 | 0.00 | 0.00 | 0.00 | 48 | 1013.9 |
| 20260508123804 | 59 | 311 | 3.0 | 6.0 | 0.00 | 0.00 | 0.00 | 48 | 1013.8 |
| 20260508123303 | 59 | 299 | 2.0 | 5.0 | 0.00 | 0.00 | 0.00 | 47 | 1013.8 |
| 20260508122804 | 58 | 258 | 2.0 | 6.0 | 0.00 | 0.00 | 0.00 | 51 | 1013.8 |
| 20260508122306 | 58 | 327 | 1.0 | 3.0 | 0.00 | 0.00 | 0.00 | 53 | 1013.8 |
| 20260508121803 | 57 | 317 | 2.0 | 7.0 | 0.00 | 0.00 | 0.00 | 54 | 1013.7 |
| 20260508121303 | 57 | 292 | 3.0 | 6.0 | 0.00 | 0.00 | 0.00 | 55 | 1013.8 |
| 20260508120803 | 56 | 274 | 2.0 | 6.0 | 0.00 | 0.00 | 0.00 | 55 | 1013.7 |
| 20260508120303 | 55 | 299 | 2.0 | 5.0 | 0.00 | 0.00 | 0.00 | 58 | 1013.7 |
| 20260508115803 | 55 | 295 | 1.0 | 7.0 | 0.00 | 0.00 | 0.00 | 59 | 1013.8 |
| 20260508114803 | 53 | 301 | 6.0 | 10.0 | 0.00 | 0.00 | 0.00 | 61 | 1013.7 |
| 20260508113803 | 52 | 302 | 4.0 | 8.0 | 0.00 | 0.00 | 0.00 | 62 | 1013.6 |
| 20260508113303 | 52 | 306 | 3.0 | 7.0 | 0.00 | 0.00 | 0.00 | 64 | 1013.5 |
| 20260508112803 | 51 | 323 | 1.0 | 7.0 | 0.00 | 0.00 | 0.00 | 65 | 1013.4 |
| 20260508111803 | 50 | 302 | 3.0 | 9.0 | 0.00 | 0.00 | 0.00 | 66 | 1013.3 |